{"data":{"norad_id":64730,"epoch":"2026-05-24T10:56:10.623264Z","epoch_age_seconds":125232,"freshness":"FRESH","line1":"1 64730U 25144G   26144.45567851  .00006043  00000+0  21588-3 0  9993","line2":"2 64730  53.1592 189.0003 0001080  67.7299 292.3817 15.30217201 51311","mean_motion":15.30217201,"eccentricity":0.000108,"inclination_deg":53.1592,"raan_deg":189.0003,"arg_perigee_deg":67.7299,"mean_anomaly_deg":292.3817,"bstar":0.00021588,"rev_number":5131,"period_min":94.104287878803,"perigee_km":474.42355433816,"apogee_km":475.90386729169,"semimajor_km":6853.3007108149,"source":"CELESTRAK","updated_at":"2026-05-25T13:38:20.544407Z"}}